AirNav   Air Wisconsin pilot careers
 
 1111 users online  

KUYF Madison County Airport
London, Ohio, USA

GOING TO LONDON?


FAA INFORMATION EFFECTIVE 21 JUNE 2018

Location

FAA Identifier: UYF
Lat/Long: 39-55-57.8000N / 083-27-43.2000W
39-55.963333N / 083-27.720000W
39.9327222 / -83.4620000
(estimated)
Elevation: 1081.6 ft. / 329.7 m (surveyed)
Variation: 06W (2000)
From city: 3 miles N of LONDON, OH
Time zone: UTC -4 (UTC -5 during Standard Time)
Zip code: 43140

Airport Operations

Airport use: Open to the public
Control tower: no
ARTCC: INDIANAPOLIS CENTER
FSS: DAYTON FLIGHT SERVICE STATION
NOTAMs facility: DAY (NOTAM-D service available)
Attendance: MON-FRI 0800-1600, ALL SAT-SUN 0900-1700
Wind indicator: lighted
Segmented circle: no
Lights: ACTVT MIRL RWY 09/27 & REIL RWYS 09 & 27 - CTAF
Beacon: white-green (lighted land airport)
Operates sunset to sunrise.

Airport Communications

CTAF/UNICOM: 123.0
WX AWOS-3PT: 120.85 (740-852-2844)
COLUMBUS APPROACH: 118.85
COLUMBUS DEPARTURE: 118.85
IC CLASS C: 118.85
WX AWOS-3 at TZR (15 nm E): 135.925 (614-878-1722)
WX AWOS-3 at I74 (18 nm NW): 118.325 (937-484-5863)
WX AWOS-3 at MRT (18 nm N): 119.275 (937-644-2967)
WX AWOS-3PT at SGH (18 nm W): 134.975
WX ASOS at OSU (20 nm NE): PHONE 614-451-2465

Nearby radio navigation aids

VOR radial/distance  VOR name  Freq  Var
SGHr076/18.6SPRINGFIELD VOR/DME113.2004W
XUBr322/(33.0)YELLOW BUD VOR112.5005W
MXQr031/34.0MIDWEST VOR/DME112.9004W
RODr134/34.1ROSEWOOD VORTAC117.5005W

 
NDB name  Hdg/Dist  Freq  Var  ID
BOUTN305/13.723005WBU -... ..-
FULER240/14.851505WOS --- ...
CLARK COUNTY080/15.034104WCCJ -.-. -.-. .---
COURT HOUSE357/20.241406WCSS -.-. ... ...

Airport Services

Fuel available: 100LL JET-A
24 HR SELF SVC FUEL AFTER HRS.
Parking: tiedowns
Airframe service: MAJOR
Powerplant service: MAJOR
Bottled oxygen: NONE

Runway Information

Runway 9/27

Dimensions: 4001 x 75 ft. / 1220 x 23 m
Surface: asphalt, in fair condition
Weight bearing capacity: 
Single wheel: 30.0
Double wheel: 40.0
Runway edge lights: medium intensity
RUNWAY 9  RUNWAY 27
Latitude: 39-55.943358N39-55.982148N
Longitude: 083-28.146760W083-27.292362W
Elevation: 1081.5 ft.1051.0 ft.
Gradient: 0.7%0.7%
Traffic pattern: leftleft
Runway heading: 093 magnetic, 087 true273 magnetic, 267 true
Markings: nonprecision, in good conditionnonprecision, in good condition
Visual slope indicator: 4-light PAPI on left (3.00 degrees glide path)4-light PAPI on left (3.00 degrees glide path)
Runway end identifier lights: yesyes
Touchdown point: yes, no lightsyes, no lights
Obstructions: 8 ft. crops, 201 ft. from runway, 195 ft. right of centerline
RWY 09 CROPS 200 FT FM RWY 09 EXTENDING TO RWY 09 185 FT R
4 ft. crops, 201 ft. from runway, 160 ft. left of centerline
RWY 27 CROPS 200 FT FM RWY 27 EXTENDING TO RWY 27 160 FT L

Airport Ownership and Management from official FAA records

Ownership: Publicly-owned
Owner: MADISON COUNTY AIRPORT AUTH
1281 US RT 40 SW
LONDON, OH 43140
Phone 740-852-5040
Manager: JOHN DUHL
1281 ST RT 40 SW
LONDON, OH 43140
Phone 740-852-5040

Airport Operational Statistics

Aircraft based on the field: 45
Single engine airplanes: 41
Multi engine airplanes: 2
Helicopters: 2
    
Aircraft operations: avg 113/day *
51% local general aviation
44% transient general aviation
5% military
<1% air taxi
* for 12-month period ending 26 May 2017

Instrument Procedures

NOTE: All procedures below are presented as PDF files. If you need a reader for these files, you should download the free Adobe Reader.

NOT FOR NAVIGATION. Please procure official charts for flight.
FAA instrument procedures published for use from 21 June 2018 at 0901Z to 19 July 2018 at 0900Z.

 
IAPs - Instrument Approach Procedures
RNAV (GPS) RWY 09   download (229KB)
RNAV (GPS) RWY 27   download (236KB)
NOTE: Special Take-Off Minimums/Departure Procedures apply   download (164KB)

Other nearby airports with instrument procedures:

KTZR - Bolton Field Airport (15 nm E)
I74 - Grimes Field Airport (18 nm NW)
KMRT - Union County Airport (18 nm N)
KSGH - Springfield-Beckley Municipal Airport (18 nm W)
KOSU - Ohio State University Airport (20 nm NE)
 
Loc | Ops | Rwys | IFR | FBO | Links
Com | Nav | Svcs | Stats | Notes

AirNav Hotels Sweepstakes
 
Area around KUYF (Madison County Airport)
 
Road maps at: MapQuest Bing Google
 
Aerial photo
WARNING: Photo may not be current or correct
Aerial photo of KUYF (Madison County Airport)
Do you have a better or more recent aerial photo of Madison County Airport that you would like to share? If so, please send us your photo.

 
Sectional chart

 
Airport distance calculator
Flying to Madison County Airport? Find the distance to fly.

From to KUYF

Sunrise and sunset
Times for 23-Jun-2018
 Local
(UTC-4)
 Zulu
(UTC)
Morning civil twilight05:3409:34
Sunrise06:0710:07
Sunset21:0501:05
Evening civil twilight21:3801:38

Current date and time
Zulu (UTC)  23-Jun-2018 16:26:55
Local (UTC-4)  23-Jun-2018 12:26:55
 
METAR
KUYF 231615Z AUTO 24007G15KT 7SM RA SCT022 BKN034 OVC043 20/19 A2979 RMK AO2
KTZR 
15nm E 
231550Z 25011G17KT 10SM SCT026 BKN040 OVC050 22/18 A2979
KSGH 
18nm SW 
231607Z AUTO 23014KT 10SM BKN019 OVC038 22/19 A2979 RMK AO2 RAE1557
KMRT 
18nm N 
231615Z AUTO 26013KT 10SM SCT024 SCT030 OVC038 22/17 A2978 RMK AO2 T02200174
KOSU 
20nm NE 
231553Z 26011KT 10SM SCT026 SCT050 BKN060 23/18 A2977 RMK AO2 SLP074 T02280178
TAF
KLCK 
26nm E 
231136Z 2312/2412 21010KT P6SM VCSH FEW009 BKN012 OVC035 FM231500 22010KT P6SM BKN025 FM231700 22012KT P6SM VCSH BKN035 FM240100 25004KT P6SM BKN035
KCMH 
27nm E 
231136Z 2312/2412 20006KT P6SM VCSH BKN009 OVC015 FM231500 22009KT P6SM BKN025 FM231700 22012KT P6SM VCSH SCT015 BKN035 FM240100 24005KT P6SM BKN035
KFFO 
27nm W 
231100Z 2311/2417 23009KT 9999 BKN010 BKN035 QNH2973INS BECMG 2313/2314 24010G15KT 9999 FEW015 BKN035 QNH2978INS TEMPO 2319/2324 9000 -SHRA BKN015 BKN035 BECMG 2323/2324 26009KT 9999 BKN020 QNH2980INS TX25/2320Z TN18/2410Z
NOTAMs
Click for the latest NOTAMs
NOTAMs are issued by the DoD/FAA and will open in a separate window not controlled by AirNav.

 

 
 

FBO, Fuel Providers, and Aircraft Ground Support

  
 Business Name 
 
 Contact 
 
 Services / Description 
 
Fuel Prices
 
Comments
  
 Madison County Airport
740-852-5040
[web site]
[email]
Airport management, Aviation fuel, Aircraft parking (ramp or tiedown), Hangar leasing / sales, ...

More info about Madison County Airport
EPIC
100LL Jet A
AS $4.75 $3.00 
 Updated 21-Jun-2018
 
   1 read write
AS=Assisted/Self Service
Update Fuel Prices
 

Would you like to see your business listed on this page?

 If your business provides an interesting product or service to pilots, flight crews, aircraft, or users of the Madison County Airport, you should consider listing it here.  To start the listing process, click on the button below
 
Add a business
 

Other Pages about Madison County Airport

co.madison.oh.us/airport
 
Update a link
 
Copyright © AirNav, LLC. All rights reserved. Privacy Policy  Contact